Location: Brad
(46.1333°N, 22.7833°E)
Time: 04:22:08
(UTC+00:00)

Cosmos 468 Rocket - Pass Details

Date: 03 February 2023
Orbit: 744 x 778 km, 74.0° (Epoch: 29 March)

Event Time Altitude Azimuth Distance (km) Brightness Sun altitude
Rises 16:19:34 0° 342° (NNW) 3,222 7.3 -7.9°
Reaches altitude 10° 16:22:03 10° 349° (NNW) 2,287 6.4 -8.3°
Maximum altitude 16:27:02 46° 62° (ENE) 1,003 4.2 -9.1°
Drops below altitude 10° 16:31:57 10° 136° (SE) 2,257 6.1 -10.0°
Sets 16:34:23 0° 142° (SE) 3,175 6.9 -10.4°
